JP7FSO Weather Reports


Display with metric or nautical units.
time (UTC)temp
F
wind
direction
speed
MPH
gust
MPH
rain 1hr
in
rain 24hr
in
rain mn
in
humidity
%
barometer
mb
20191113091653 58 70 2.0 0.0 0.00 0.00 0.00 60 1009.0
20191113090129 58 69 2.0 0.0 0.00 0.00 0.00 60 1009.1
20191113084644 59 67 3.0 0.0 0.00 0.00 0.00 59 1009.1
20191113083233 59 74 2.0 0.0 0.00 0.00 0.00 59 1009.3
20191113081639 59 81 1.0 0.0 0.00 0.00 0.00 58 1009.6
20191113080200 59 72 1.0 0.0 0.00 0.00 0.00 57 1009.5
20191113074636 59 72 1.0 0.0 0.00 0.00 0.00 56 1009.6
20191113073124 60 67 2.0 0.0 0.00 0.00 0.00 55 1009.6
20191113070204 61 72 2.0 0.0 0.00 0.00 0.00 52 1009.6
20191113064648 62 80 2.0 0.0 0.00 0.00 0.00 50 1009.6
20191113063154 63 80 2.0 0.0 0.00 0.00 0.00 48 1009.6
20191113061638 64 274 2.0 0.0 0.00 0.00 0.00 45 1009.6
20191113060100 65 80 2.0 0.0 0.00 0.00 0.00 42 1009.6
20191113054639 65 288 1.0 0.0 0.00 0.00 0.00 40 1009.5
20191113053102 65 77 3.0 0.0 0.00 0.00 0.00 39 1009.6
20191113051627 66 86 3.0 0.0 0.00 0.00 0.00 37 1009.6
20191113050057 67 72 2.0 0.0 0.00 0.00 0.00 34 1009.8
20191113044622 66 65 2.0 0.0 0.00 0.00 0.00 34 1010.1
20191113043133 67 39 2.0 0.0 0.00 0.00 0.00 31 1010.1
20191113041615 66 68 1.0 0.0 0.00 0.00 0.00 33 1010.2
20191113040102 66 71 1.0 0.0 0.00 0.00 0.00 35 1010.6
20191113034537 65 71 3.0 0.0 0.00 0.00 0.00 36 1011.0
20191113033029 64 81 2.0 0.0 0.00 0.00 0.00 35 1011.2
20191113031534 64 74 3.0 0.0 0.00 0.00 0.00 35 1011.3
20191113030009 64 81 2.0 0.0 0.00 0.00 0.00 34 1011.5
20191113024515 64 86 2.0 0.0 0.00 0.00 0.00 34 1011.7
20191113023001 64 66 1.0 0.0 0.00 0.00 0.00 35 1012.1
20191113021629 63 68 1.0 0.0 0.00 0.00 0.00 37 1012.3
20191113020147 62 77 1.0 0.0 0.00 0.00 0.00 39 1012.8
20191113014647 62 76 1.0 0.0 0.00 0.00 0.00 46 1013.4
20191113013115 61 77 0.0 0.0 0.00 0.00 0.00 48 1013.7
20191113011602 59 75 0.0 0.0 0.00 0.00 0.00 51 1013.8
20191113010135 58 68 1.0 0.0 0.00 0.00 0.00 52 1013.8
20191113004726 57 67 2.0 0.0 0.00 0.00 0.00 53 1014.3
20191113003100 56 259 1.0 0.0 0.00 0.00 0.00 54 1014.4
20191113001529 55 260 0.0 0.0 0.00 0.00 0.00 57 1014.9
20191113000038 53 260 1.0 0.0 0.00 0.00 0.00 60 1015.1
20191112231514 49 259 1.0 0.0 0.00 0.00 0.00 69 1015.7
20191112230007 48 259 0.0 0.0 0.00 0.00 0.00 72 1015.7
20191112224507 47 259 0.0 0.0 0.00 0.00 0.00 73 1015.9
20191112223006 46 259 0.0 0.0 0.00 0.00 0.00 72 1015.8
20191112221703 46 259 0.0 0.0 0.00 0.00 0.00 71 1015.6
20191112220206 47 259 0.0 0.0 0.00 0.00 0.00 70 1015.7
20191112214630 47 259 0.0 0.0 0.00 0.00 0.00 68 1015.7
20191112213236 48 259 0.0 0.0 0.00 0.00 0.00 67 1015.9
20191112211738 49 259 0.0 0.0 0.00 0.00 0.00 65 1015.7
20191112210224 47 259 1.0 0.0 0.00 0.00 0.00 67 1015.7
20191112204605 47 259 0.0 0.0 0.00 0.00 0.00 69 1015.5
20191112203239 47 259 0.0 0.0 0.00 0.00 0.00 68 1015.6
20191112201711 48 259 0.0 0.0 0.00 0.00 0.00 67 1015.5
20191112200145 49 259 0.0 0.0 0.00 0.00 0.00 64 1015.2
20191112194611 49 259 0.0 0.0 0.00 0.00 0.00 63 1014.9
20191112193059 49 259 1.0 0.0 0.00 0.00 0.00 62 1014.5
20191112191627 49 256 0.0 0.0 0.00 0.00 0.00 64 1014.4
20191112190109 50 256 0.0 0.0 0.00 0.00 0.00 63 1014.1
20191112184631 51 256 0.0 0.0 0.00 0.00 0.00 60 1014.0
20191112183205 52 256 0.0 0.0 0.00 0.00 0.00 56 1013.5
20191112181611 53 256 0.0 0.0 0.00 0.00 0.00 53 1013.5
20191112180044 53 256 0.0 0.0 0.00 0.00 0.00 52 1013.8
20191112174631 54 256 0.0 0.0 0.00 0.00 0.00 47 1013.8
20191112171721 54 255 0.0 0.0 0.00 0.00 0.00 48 1013.7
20191112170122 53 255 0.0 0.0 0.00 0.00 0.00 48 1013.3
20191112164613 53 255 0.0 0.0 0.00 0.00 0.00 49 1013.3
20191112163059 53 252 0.0 0.0 0.00 0.00 0.00 51 1013.3
20191112161545 53 253 1.0 0.0 0.00 0.00 0.00 51 1013.2
20191112160026 54 251 0.0 0.0 0.00 0.00 0.00 50 1012.9
20191112154542 54 251 0.0 0.0 0.00 0.00 0.00 51 1012.8
20191112153039 54 251 0.0 0.0 0.00 0.00 0.00 51 1012.7
20191112151540 54 251 0.0 0.0 0.00 0.00 0.00 53 1012.8
20191112150039 54 251 0.0 0.0 0.00 0.00 0.04 53 1012.9
20191112144546 54 251 0.0 0.0 0.00 0.00 0.04 54 1012.9
20191112143041 54 251 0.0 0.0 0.00 0.00 0.04 55 1013.1
20191112141537 54 252 0.0 0.0 0.00 0.00 0.04 55 1012.8
20191112140039 54 252 0.0 0.0 0.00 0.00 0.04 55 1012.7
20191112134546 54 252 1.0 0.0 0.00 0.00 0.04 55 1012.7
20191112133015 53 255 0.0 0.0 0.00 0.00 0.04 55 1012.7
20191112131519 53 254 1.0 0.0 0.00 0.00 0.04 56 1013.1
20191112130019 53 253 0.0 0.0 0.00 0.00 0.04 57 1013.0
20191112124518 52 253 0.0 0.0 0.00 0.00 0.04 58 1012.9
20191112123027 53 253 0.0 0.0 0.00 0.00 0.04 58 1012.7
20191112121515 53 253 0.0 0.0 0.00 0.00 0.04 57 1012.2
20191112120010 53 253 0.0 0.0 0.00 0.00 0.04 56 1012.2
20191112114510 54 253 0.0 0.0 0.00 0.00 0.04 55 1011.9
20191112113019 54 253 0.0 0.0 0.00 0.00 0.04 54 1012.0
20191112111507 54 253 0.0 0.0 0.00 0.00 0.04 54 1011.7
20191112110023 54 253 0.0 0.0 0.00 0.00 0.04 54 1011.6
20191112104513 54 253 1.0 0.0 0.00 0.00 0.04 53 1011.3
20191112103016 54 252 0.0 0.0 0.00 0.00 0.04 55 1011.2
20191112101506 54 250 1.0 0.0 0.00 0.00 0.04 54 1011.1
20191112100026 54 247 0.0 0.0 0.00 0.00 0.04 56 1011.1
20191112094524 55 247 0.0 0.0 0.00 0.00 0.04 55 1011.2
20191112093006 55 247 0.0 0.0 0.00 0.00 0.04 54 1010.8